Regional Weather Roundup
Issued by NWS

Home | Current Version | Previous Version | Text Only | Print | Product List | Glossary On
Versions: 1 2 3 4 5 6 7 8 9 10 11 12 13 14 15 16 17 18 19 20 21 22 23 24 25 26 27 28 29 30 31 32 33 34 35 36 37 38 39 40 41 42 43 44 45 46 47 48 49 50
000
ASUS45 KREV 182010
RWRNV
NEVADA REGIONAL WEATHER ROUNDUP
NATIONAL WEATHER SERVICE RENO NV
1200 PM PST THU DEC 18 2014

NOTE: "FAIR" INDICATES FEW OR NO CLOUDS BELOW 12,000 FEET WITH NO
SIGNIFICANT WEATHER AND/OR OBSTRUCTIONS TO VISIBILITY.

NVZ001-003-004-182100-
WESTERN NEVADA

CITY           SKY/WX    TMP DP  RH WIND       PRES   REMARKS
RENO           PTSUNNY   44  28  53 SE5       30.13F
CARSON CITY    FAIR      46  25  42 CALM      30.13F
MINDEN         FAIR      45  25  45 CALM      30.15
SLIDE MTN        N/A     28  27  93 S3          N/A
PYRAMID LAKE     N/A     45 N/A N/A NE5         N/A
FALLON         CLOUDY    46  28  49 W5        30.15S
LOVELOCK       CLOUDY    45  32  60 SW6       30.15S
HAWTHORNE      SUNNY     46  30  53 E8        30.15S
$$

NVZ002-CAZ072-073-182100-
NORTHERN AND CENTRAL SIERRA

CITY           SKY/WX    TMP DP  RH WIND       PRES   REMARKS
S. LAKE TAHOE  MOSUNNY   42  25  50 S7        30.13F
TRUCKEE        MOSUNNY   39  28  65 SE3       30.13F
SQUAW VLY 8000   N/A     32  32 100 VRB10       N/A
BLUE CANYON    CLOUDY    38  32  79 SE6       30.16F
MAMMOTH LAKES  FAIR      36  23  60 CALM      30.14F
BRIDGEPORT     FAIR      41  20  43 E3        30.09F
$$

NVZ030-031-036-182100-
NORTHERN NEVADA

CITY           SKY/WX    TMP DP  RH WIND       PRES   REMARKS
ELKO           CLOUDY    36  30  79 CALM      30.13F
WINNEMUCCA     CLOUDY    43  30  60 CALM      30.14S
WENDOVER       MOSUNNY   36  28  75 SE3       30.15F
$$

NVZ035-037-182100-
CENTRAL NEVADA

CITY           SKY/WX    TMP DP  RH WIND       PRES   REMARKS
ELY            SUNNY     39  26  59 W8        30.12F
EUREKA           N/A     38  26  62 VRB3      30.12F
$$

NVZ013-014-182100-
SOUTH CENTRAL NEVADA

CITY           SKY/WX    TMP DP  RH WIND       PRES   REMARKS
TONOPAH        PTSUNNY   40  26  57 CALM      30.15F
$$

NVZ017-020-022-182100-
SOUTHERN NEVADA

CITY           SKY/WX    TMP DP  RH WIND       PRES   REMARKS
LAS VEGAS      PTSUNNY   53  40  61 S5        30.13F
N. LAS VEGAS   SUNNY     53  39  59 CALM      30.16F
NELLIS AFB     CLOUDY    55  42  60 N2        30.17F
HENDERSON      MOSUNNY   50  39  66 CALM      30.18F
MERCURY        CLOUDY    50  39  66 SW6       30.16
$$


USA.gov is the U.S. government's official web portal to all federal, state and local government web resources and services.